Time,TemperatureF,DewpointF,PressureIn,WindDirection,WindDirectionDegrees,WindSpeedMPH,WindSpeedGustMPH,Humidity,HourlyPrecipIn,Conditions,Clouds,dailyrainin,SoftwareType,DateUTC
2013-07-01 00:01:00,67.0,60.0,29.83,North,0,0.0,0.0,79,0.00,,,0.00,,2013-07-01 07:01:00,
2013-07-01 00:11:00,67.0,60.0,29.83,North,0,0.0,0.0,79,0.00,,,0.00,,2013-07-01 07:11:00,
2013-07-01 00:21:00,67.0,60.0,29.83,North,0,0.0,0.0,79,0.00,,,0.00,,2013-07-01 07:21:00,
2013-07-01 00:33:00,67.0,60.0,29.83,North,0,0.0,0.0,79,0.00,,,0.00,,2013-07-01 07:33:00,
2013-07-01 00:43:00,66.0,60.0,29.84,NNW,338,0.0,0.0,80,0.00,,,0.00,,2013-07-01 07:43:00,
2013-07-01 00:53:00,66.0,60.0,29.85,NNW,338,0.0,0.0,81,0.00,,,0.00,,2013-07-01 07:53:00,
2013-07-01 01:01:00,66.0,60.0,29.85,NNW,338,0.0,0.0,81,0.00,,,0.00,,2013-07-01 08:01:00,
2013-07-01 01:11:00,66.0,60.0,29.85,NNW,338,0.0,0.0,81,0.00,,,0.00,,2013-07-01 08:11:00,
2013-07-01 01:22:00,66.0,60.0,29.86,NNW,338,0.0,0.0,82,0.00,,,0.00,,2013-07-01 08:22:00,
2013-07-01 01:32:00,65.0,59.0,29.85,NNW,338,0.0,0.0,82,0.00,,,0.00,,2013-07-01 08:32:00,
2013-07-01 01:43:00,65.0,59.0,29.85,NNW,338,0.0,0.0,82,0.00,,,0.00,,2013-07-01 08:43:00,
2013-07-01 01:52:00,65.0,59.0,29.85,NNW,338,0.0,0.0,82,0.00,,,0.00,,2013-07-01 08:52:00,
2013-07-01 02:01:00,65.0,59.0,29.85,NNW,338,0.0,0.0,82,0.00,,,0.00,,2013-07-01 09:01:00,
2013-07-01 02:11:00,65.0,60.0,29.86,NNW,338,0.0,0.0,83,0.00,,,0.00,,2013-07-01 09:11:00,
2013-07-01 02:22:00,65.0,60.0,29.86,NNW,338,0.0,0.0,83,0.00,,,0.00,,2013-07-01 09:22:00,
2013-07-01 02:33:00,65.0,60.0,29.86,NNW,338,0.0,0.0,83,0.00,,,0.00,,2013-07-01 09:33:00,
2013-07-01 02:43:00,65.0,60.0,29.86,NNW,338,0.0,0.0,83,0.00,,,0.00,,2013-07-01 09:43:00,
2013-07-01 02:53:00,64.0,59.0,29.86,NNW,338,0.0,0.0,83,0.00,,,0.00,,2013-07-01 09:53:00,
2013-07-01 03:03:00,64.0,59.0,29.86,NNW,338,0.0,0.0,84,0.00,,,0.00,,2013-07-01 10:03:00,
2013-07-01 03:11:00,64.0,59.0,29.86,NNW,338,0.0,0.0,84,0.00,,,0.00,,2013-07-01 10:11:00,
2013-07-01 03:22:00,64.0,59.0,29.86,NNW,338,0.0,0.0,84,0.00,,,0.00,,2013-07-01 10:22:00,
2013-07-01 03:33:00,64.0,59.0,29.86,NNW,338,0.0,0.0,84,0.00,,,0.00,,2013-07-01 10:33:00,
2013-07-01 03:42:00,63.0,58.0,29.86,NNW,338,0.0,0.0,84,0.00,,,0.00,,2013-07-01 10:42:00,
2013-07-01 03:52:00,63.0,58.0,29.86,NNW,338,0.0,0.0,84,0.00,,,0.00,,2013-07-01 10:52:00,
2013-07-01 04:02:00,63.0,58.0,29.86,NNW,338,0.0,0.0,84,0.00,,,0.00,,2013-07-01 11:02:00,
2013-07-01 04:11:00,63.0,58.0,29.86,NNW,338,0.0,0.0,84,0.00,,,0.00,,2013-07-01 11:11:00,
2013-07-01 04:22:00,63.0,58.0,29.86,NNW,338,0.0,0.0,84,0.00,,,0.00,,2013-07-01 11:22:00,
2013-07-01 04:33:00,62.0,57.0,29.86,NNW,338,0.0,0.0,85,0.00,,,0.00,,2013-07-01 11:33:00,
2013-07-01 04:43:00,62.0,57.0,29.86,NNW,338,0.0,0.0,85,0.00,,,0.00,,2013-07-01 11:43:00,
2013-07-01 04:52:00,62.0,57.0,29.86,NNW,338,0.0,0.0,85,0.00,,,0.00,,2013-07-01 11:52:00,
2013-07-01 05:01:00,62.0,57.0,29.86,NNW,338,0.0,0.0,85,0.00,,,0.00,,2013-07-01 12:01:00,
2013-07-01 05:11:00,62.0,57.0,29.86,NNW,338,0.0,0.0,85,0.00,,,0.00,,2013-07-01 12:11:00,
2013-07-01 05:33:00,62.0,57.0,29.87,NNW,338,0.0,0.0,85,0.00,,,0.00,,2013-07-01 12:33:00,
2013-07-01 05:43:00,62.0,57.0,29.88,NNW,338,0.0,0.0,85,0.00,,,0.00,,2013-07-01 12:43:00,
2013-07-01 05:53:00,62.0,57.0,29.88,NNW,338,0.0,0.0,85,0.00,,,0.00,,2013-07-01 12:53:00,
2013-07-01 06:01:00,62.0,57.0,29.87,NNW,338,0.0,0.0,85,0.00,,,0.00,,2013-07-01 13:01:00,
2013-07-01 06:12:00,62.0,57.0,29.87,NNW,338,0.0,0.0,85,0.00,,,0.00,,2013-07-01 13:12:00,
2013-07-01 06:23:00,62.0,57.0,29.87,NNW,338,0.0,0.0,85,0.00,,,0.00,,2013-07-01 13:23:00,
2013-07-01 06:33:00,61.0,57.0,29.88,NNW,338,0.0,0.0,86,0.00,,,0.00,,2013-07-01 13:33:00,
2013-07-01 06:43:00,62.0,58.0,29.88,NNW,338,0.0,0.0,86,0.00,,,0.00,,2013-07-01 13:43:00,
2013-07-01 06:53:00,62.0,58.0,29.88,NNW,338,0.0,0.0,86,0.00,,,0.00,,2013-07-01 13:53:00,
2013-07-01 07:01:00,62.0,58.0,29.88,NNW,338,0.0,0.0,87,0.00,,,0.00,,2013-07-01 14:01:00,
2013-07-01 07:11:00,62.0,58.0,29.88,NNW,338,0.0,0.0,87,0.00,,,0.00,,2013-07-01 14:11:00,
2013-07-01 07:34:00,63.0,59.0,29.89,NNW,338,0.0,0.0,87,0.00,,,0.00,,2013-07-01 14:34:00,
2013-07-01 07:43:00,63.0,59.0,29.89,NNW,338,0.0,0.0,87,0.00,,,0.00,,2013-07-01 14:43:00,
2013-07-01 07:52:00,64.0,60.0,29.89,SSW,202,0.0,0.0,86,0.00,,,0.00,,2013-07-01 14:52:00,
2013-07-01 08:01:00,65.0,61.0,29.89,SSW,202,0.0,0.0,86,0.00,,,0.00,,2013-07-01 15:01:00,
2013-07-01 08:11:00,67.0,62.0,29.90,SSE,163,0.0,0.0,85,0.00,,,0.00,,2013-07-01 15:11:00,
2013-07-01 08:23:00,69.0,63.0,29.89,South,180,3.0,6.0,82,0.00,,,0.00,,2013-07-01 15:23:00,
2013-07-01 08:33:00,71.0,65.0,29.89,South,180,0.0,0.0,80,0.00,,,0.00,,2013-07-01 15:33:00,
2013-07-01 08:43:00,72.0,64.0,29.89,South,180,0.0,0.0,77,0.00,,,0.00,,2013-07-01 15:43:00,
2013-07-01 12:52:00,80.0,64.0,29.87,SE,135,2.0,3.0,59,0.00,,,0.00,,2013-07-01 19:52:00,
2013-07-01 13:01:00,80.0,65.0,29.88,SSW,199,2.0,3.0,60,0.00,,,0.00,,2013-07-01 20:01:00,
2013-07-01 13:11:00,79.0,64.0,29.87,SSE,158,3.0,6.0,60,0.00,,,0.00,,2013-07-01 20:11:00,
2013-07-01 13:33:00,78.0,63.0,29.88,West,267,2.0,3.0,61,0.00,,,0.00,,2013-07-01 20:33:00,
2013-07-01 13:43:00,78.0,64.0,29.88,SSE,158,2.0,2.0,62,0.00,,,0.00,,2013-07-01 20:43:00,
2013-07-01 13:52:00,78.0,64.0,29.88,SSE,158,0.0,0.0,62,0.00,,,0.00,,2013-07-01 20:52:00,
2013-07-01 14:01:00,77.0,63.0,29.87,SSE,158,1.0,2.0,63,0.00,,,0.00,,2013-07-01 21:01:00,
2013-07-01 14:11:00,77.0,63.0,29.87,SSE,158,1.0,2.0,63,0.00,,,0.00,,2013-07-01 21:11:00,
2013-07-01 14:23:00,77.0,63.0,29.87,SSE,158,1.0,2.0,63,0.00,,,0.00,,2013-07-01 21:23:00,
2013-07-01 14:34:00,77.0,63.0,29.87,SSE,158,1.0,2.0,63,0.00,,,0.00,,2013-07-01 21:34:00,
2013-07-01 14:43:00,77.0,64.0,29.88,NNW,336,0.0,1.0,65,0.00,,,0.00,,2013-07-01 21:43:00,
2013-07-01 14:53:00,76.0,64.0,29.88,South,180,1.0,2.0,66,0.00,,,0.00,,2013-07-01 21:53:00,
2013-07-01 15:01:00,76.0,64.0,29.88,South,180,1.0,2.0,66,0.00,,,0.00,,2013-07-01 22:01:00,
2013-07-01 15:11:00,76.0,64.0,29.88,South,180,1.0,2.0,66,0.00,,,0.00,,2013-07-01 22:11:00,
2013-07-01 15:23:00,76.0,64.0,29.88,South,180,1.0,2.0,66,0.00,,,0.00,,2013-07-01 22:23:00,
2013-07-01 15:32:00,76.0,64.0,29.88,South,180,1.0,2.0,66,0.00,,,0.00,,2013-07-01 22:32:00,
2013-07-01 15:53:00,75.0,64.0,29.89,SSE,158,2.0,2.0,68,0.00,,,0.00,,2013-07-01 22:53:00,
2013-07-01 16:01:00,75.0,64.0,29.89,SSW,202,1.0,2.0,69,0.00,,,0.00,,2013-07-01 23:01:00,
2013-07-01 16:11:00,75.0,64.0,29.89,SW,222,0.0,2.0,68,0.00,,,0.00,,2013-07-01 23:11:00,
2013-07-01 16:22:00,75.0,64.0,29.88,SE,135,1.0,2.0,69,0.00,,,0.00,,2013-07-01 23:22:00,
2013-07-01 16:33:00,76.0,65.0,29.89,WNW,292,1.0,1.0,68,0.00,,,0.00,,2013-07-01 23:33:00,
2013-07-01 16:43:00,76.0,65.0,29.89,WNW,292,1.0,1.0,68,0.00,,,0.00,,2013-07-01 23:43:00,
2013-07-01 16:53:00,78.0,66.0,29.89,SE,135,2.0,3.0,67,0.00,,,0.00,,2013-07-01 23:53:00,
2013-07-01 17:01:00,78.0,65.0,29.89,ESE,112,2.0,3.0,65,0.00,,,0.00,,2013-07-02 00:01:00,
2013-07-01 17:11:00,78.0,65.0,29.89,SE,128,1.0,1.0,64,0.00,,,0.00,,2013-07-02 00:11:00,
2013-07-01 17:33:00,79.0,66.0,29.89,SE,135,1.0,5.0,64,0.00,,,0.00,,2013-07-02 00:33:00,
2013-07-01 17:43:00,78.0,65.0,29.90,SSE,166,2.0,2.0,64,0.00,,,0.00,,2013-07-02 00:43:00,
2013-07-01 17:53:00,78.0,65.0,29.90,SSE,166,2.0,2.0,64,0.00,,,0.00,,2013-07-02 00:53:00,
2013-07-01 18:01:00,78.0,65.0,29.90,SSE,166,2.0,2.0,64,0.00,,,0.00,,2013-07-02 01:01:00,
2013-07-01 18:11:00,77.0,65.0,29.90,SW,225,0.0,0.0,66,0.00,,,0.00,,2013-07-02 01:11:00,
2013-07-01 18:33:00,78.0,65.0,29.90,East,90,0.0,1.0,64,0.00,,,0.00,,2013-07-02 01:33:00,
2013-07-01 18:43:00,77.0,64.0,29.89,South,180,0.0,0.0,65,0.00,,,0.00,,2013-07-02 01:43:00,
2013-07-01 18:53:00,77.0,65.0,29.89,South,180,0.0,0.0,66,0.00,,,0.00,,2013-07-02 01:53:00,
2013-07-01 19:01:00,77.0,65.0,29.89,South,180,0.0,0.0,67,0.00,,,0.00,,2013-07-02 02:01:00,
2013-07-01 19:11:00,77.0,66.0,29.90,South,180,0.0,0.0,68,0.00,,,0.00,,2013-07-02 02:11:00,
2013-07-01 19:33:00,76.0,64.0,29.89,South,180,0.0,0.0,67,0.00,,,0.00,,2013-07-02 02:33:00,
2013-07-01 19:43:00,76.0,64.0,29.89,South,180,0.0,0.0,67,0.00,,,0.00,,2013-07-02 02:43:00,
2013-07-01 19:53:00,74.0,63.0,29.89,SSW,202,0.0,0.0,69,0.00,,,0.00,,2013-07-02 02:53:00,
2013-07-01 20:01:00,74.0,64.0,29.89,SSW,202,0.0,0.0,70,0.00,,,0.00,,2013-07-02 03:01:00,
2013-07-01 20:11:00,74.0,64.0,29.90,South,180,0.0,0.0,70,0.00,,,0.00,,2013-07-02 03:11:00,
2013-07-01 20:24:00,73.0,62.0,29.90,SW,225,0.0,0.0,69,0.00,,,0.00,,2013-07-02 03:24:00,
2013-07-01 20:32:00,73.0,62.0,29.90,SW,225,0.0,0.0,69,0.00,,,0.00,,2013-07-02 03:32:00,
2013-07-01 20:43:00,73.0,62.0,29.90,SW,225,0.0,0.0,69,0.00,,,0.00,,2013-07-02 03:43:00,
2013-07-01 20:53:00,73.0,62.0,29.90,SW,225,0.0,0.0,69,0.00,,,0.00,,2013-07-02 03:53:00,
2013-07-01 21:01:00,73.0,62.0,29.90,SW,225,0.0,0.0,69,0.00,,,0.00,,2013-07-02 04:01:00,
2013-07-01 22:01:00,69.0,60.0,29.91,West,270,0.0,0.0,73,0.00,,,0.00,,2013-07-02 05:01:00,
2013-07-01 22:11:00,69.0,60.0,29.91,West,270,0.0,0.0,74,0.00,,,0.00,,2013-07-02 05:11:00,
2013-07-01 22:22:00,69.0,60.0,29.91,West,270,0.0,0.0,74,0.00,,,0.00,,2013-07-02 05:22:00,
2013-07-01 22:32:00,69.0,60.0,29.91,West,270,0.0,0.0,74,0.00,,,0.00,,2013-07-02 05:32:00,
2013-07-01 22:42:00,67.0,59.0,29.93,SW,225,0.0,0.0,76,0.00,,,0.00,,2013-07-02 05:42:00,
2013-07-01 22:52:00,67.0,59.0,29.93,SSW,202,0.0,0.0,75,0.00,,,0.00,,2013-07-02 05:52:00,
2013-07-01 23:01:00,67.0,59.0,29.93,South,180,0.0,1.0,76,0.00,,,0.00,,2013-07-02 06:01:00,
2013-07-01 23:11:00,66.0,58.0,29.93,South,180,0.0,0.0,76,0.00,,,0.00,,2013-07-02 06:11:00,
2013-07-01 23:23:00,66.0,59.0,29.94,South,180,0.0,0.0,77,0.00,,,0.00,,2013-07-02 06:23:00,
2013-07-01 23:33:00,65.0,58.0,29.94,ENE,68,0.0,0.0,77,0.00,,,0.00,,2013-07-02 06:33:00,
2013-07-01 23:43:00,65.0,58.0,29.94,SSW,201,0.0,0.0,77,0.00,,,0.00,,2013-07-02 06:43:00,
2013-07-01 23:53:00,65.0,58.0,29.95,SSW,202,0.0,0.0,78,0.00,,,0.00,,2013-07-02 06:53:00,